Location: Chacón
(10.5789°N, 66.9317°W)
Time: 05:54:54
(UTC+00:00)

Sakura Rocket - Pass Details

Date: 15 August 2024
Orbit: 475 x 1710 km, 28.7° (Epoch: 16 September)

Event Time Altitude Azimuth Distance (km) Brightness Sun altitude
Rises 23:11:06 0° 239° (WSW) 3,264 7.5 -6.8°
Reaches altitude 10° 23:13:54 10° 238° (WSW) 2,149 6.5 -7.5°
Maximum altitude 23:18:44 80° 152° (SSE) 582 2.9 -8.6°
Drops below altitude 10° 23:22:34 10° 65° (ENE) 1,710 4.9 -9.5°
Enters shadow 23:23:17 - 64° (ENE) 1,997 5.2 -9.7°
